Voltar ao catálogo

STARLINK-31069

AtivoComunicaçõesVLEO
NORAD 58607·PAYLOAD·🇺🇸 United States

Lançado Dec 19, 2023 de Cape Canaveral Space Force Station

Loading…

Próximas Passagens (próximas 24 horas)

TLE

AtualizadoSource: CelesTrak SupGP

Época: Sep 15, 2026, 02:17 UTC

1 58607C 23200U   26258.09562500 -.00040887  00000+0 -14811-2 0  2586
2 58607  42.9998 179.1992 0001463 272.3689 238.7773 15.27593918    16

Acompanhe STARLINK-31069 em tempo real com AllMySat

Download on the App Store